TimeIST,TemperatureF,Dew PointF,Humidity,Sea Level PressureIn,VisibilityMPH,Wind Direction,Wind SpeedMPH,Gust SpeedMPH,PrecipitationIn,Events,Conditions,WindDirDegrees,DateUTC
12:00 AM,53.6,46.4,77,29.89,6.2,SSW,13.8,-,N/A,,Mostly Cloudy,200,2011-10-21 23:00:00
12:30 AM,53.6,46.4,77,29.86,6.2,SSW,15.0,-,N/A,,Mostly Cloudy,200,2011-10-21 23:30:00
1:00 AM,54,44,59,29.88,19,SSW,15.7,,,,Mostly Cloudy,200,2011-10-22 00:00:00
1:00 AM,53.6,44.6,72,29.86,6.2,SSW,15.0,-,N/A,,Mostly Cloudy,200,2011-10-22 00:00:00
1:30 AM,53.6,42.8,67,29.86,6.2,SSW,11.5,-,N/A,,Mostly Cloudy,200,2011-10-22 00:30:00
2:00 AM,53.6,42.8,67,29.83,6.2,South,13.8,25.3,N/A,,Mostly Cloudy,180,2011-10-22 01:00:00
2:30 AM,53.6,44.6,72,29.83,6.2,South,10.4,23.0,N/A,,Mostly Cloudy,180,2011-10-22 01:30:00
3:00 AM,53.6,44.6,72,29.80,6.2,SSE,9.2,-,N/A,,Mostly Cloudy,160,2011-10-22 02:00:00
3:30 AM,53.6,44.6,72,29.80,6.2,SSE,9.2,-,N/A,,Mostly Cloudy,160,2011-10-22 02:30:00
4:00 AM,53.6,42.8,67,29.77,6.2,SSE,9.2,-,N/A,,Scattered Clouds,150,2011-10-22 03:00:00
4:30 AM,53.6,44.6,72,29.77,6.2,SSE,13.8,-,N/A,,Mostly Cloudy,160,2011-10-22 03:30:00
5:00 AM,53.6,44.6,72,29.77,6.2,South,8.1,-,N/A,,Mostly Cloudy,170,2011-10-22 04:00:00
5:30 AM,53.6,46.4,77,29.74,6.2,South,11.5,-,N/A,,Scattered Clouds,180,2011-10-22 04:30:00
6:00 AM,53.6,46.4,77,29.74,6.2,South,10.4,-,N/A,,Mostly Cloudy,170,2011-10-22 05:00:00
6:30 AM,53.6,46.4,77,29.74,6.2,SSE,11.5,-,N/A,,Mostly Cloudy,160,2011-10-22 05:30:00
7:00 AM,53,48,76,29.75,19,South,15.7,,,Rain,Light Rain,170,2011-10-22 06:00:00
7:00 AM,53.6,48.2,82,29.74,6.2,South,16.1,-,N/A,Rain,Light Rain,170,2011-10-22 06:00:00
7:30 AM,53.6,48.2,82,29.74,6.2,South,16.1,-,N/A,,Mostly Cloudy,170,2011-10-22 06:30:00
8:00 AM,53.6,46.4,77,29.71,6.2,South,21.9,33.4,N/A,,Mostly Cloudy,180,2011-10-22 07:00:00
8:30 AM,53.6,46.4,77,29.71,6.2,South,18.4,-,N/A,,Mostly Cloudy,170,2011-10-22 07:30:00
9:00 AM,53.6,46.4,77,29.71,6.2,South,15.0,-,N/A,,Mostly Cloudy,170,2011-10-22 08:00:00
9:30 AM,53.6,46.4,77,29.71,6.2,South,16.1,-,N/A,,Mostly Cloudy,170,2011-10-22 08:30:00
10:00 AM,53.6,46.4,77,29.71,6.2,South,17.3,-,N/A,,Mostly Cloudy,180,2011-10-22 09:00:00
10:30 AM,53.6,46.4,77,29.68,6.2,South,16.1,-,N/A,,Mostly Cloudy,180,2011-10-22 09:30:00
11:00 AM,53.6,48.2,82,29.68,6.2,South,15.0,27.6,N/A,,Mostly Cloudy,180,2011-10-22 10:00:00
11:30 AM,53.6,46.4,77,29.68,6.2,South,16.1,29.9,N/A,,Mostly Cloudy,180,2011-10-22 10:30:00
12:00 PM,53.6,48.2,82,29.68,6.2,South,16.1,-,N/A,,Mostly Cloudy,170,2011-10-22 11:00:00
12:30 PM,55.4,48.2,77,29.65,6.2,South,18.4,29.9,N/A,,Mostly Cloudy,180,2011-10-22 11:30:00
1:00 PM,54,47,71,29.65,19,South,17.9,,,,Partly Cloudy,170,2011-10-22 12:00:00
1:00 PM,55.4,46.4,72,29.65,6.2,South,17.3,-,N/A,,Mostly Cloudy,170,2011-10-22 12:00:00
1:30 PM,55.4,48.2,77,29.62,6.2,South,19.6,-,N/A,,Mostly Cloudy,170,2011-10-22 12:30:00
2:00 PM,53.6,48.2,82,29.62,6.2,South,20.7,-,N/A,,Mostly Cloudy,170,2011-10-22 13:00:00
2:30 PM,53.6,48.2,82,29.59,6.2,South,19.6,-,N/A,Rain,Light Rain,170,2011-10-22 13:30:00
3:00 PM,53.6,50.0,88,29.59,6.2,SSE,18.4,-,N/A,,Mostly Cloudy,160,2011-10-22 14:00:00
3:30 PM,53.6,50.0,88,29.56,6.2,SSE,18.4,-,N/A,Rain,Light Rain,160,2011-10-22 14:30:00
4:00 PM,55.4,50.0,82,29.56,6.2,SSE,16.1,-,N/A,,Mostly Cloudy,160,2011-10-22 15:00:00
4:30 PM,55.4,50.0,82,29.53,6.2,South,18.4,-,N/A,Rain,Light Rain Showers,170,2011-10-22 15:30:00
5:00 PM,55.4,50.0,82,29.53,6.2,South,19.6,-,N/A,Rain,Light Rain Showers,170,2011-10-22 16:00:00
5:30 PM,53.6,51.8,94,29.53,6.2,South,16.1,-,N/A,Rain,Light Rain,170,2011-10-22 16:30:00
6:00 PM,53.6,51.8,94,29.53,6.2,SSE,13.8,-,N/A,Rain,Light Rain,160,2011-10-22 17:00:00
6:30 PM,53.6,51.8,94,29.53,6.2,South,11.5,-,N/A,Rain,Light Rain,170,2011-10-22 17:30:00
7:00 PM,54,52,90,29.54,9,South,8.9,,,Rain,Light Rain,170,2011-10-22 18:00:00
7:00 PM,53.6,51.8,94,29.53,6.2,South,9.2,-,N/A,Rain,Light Rain,170,2011-10-22 18:00:00
7:30 PM,53.6,51.8,94,29.53,6.2,South,8.1,-,N/A,,Mostly Cloudy,170,2011-10-22 18:30:00
8:00 PM,55.4,51.8,88,29.53,6.2,SW,11.5,-,N/A,Rain,Light Rain Showers,220,2011-10-22 19:00:00
8:30 PM,51.8,50.0,94,29.53,5.6,West,10.4,-,N/A,Rain,Light Rain Showers,260,2011-10-22 19:30:00
9:00 PM,51.8,50.0,94,29.53,6.2,WSW,10.4,-,N/A,Rain,Light Rain Showers,250,2011-10-22 20:00:00
9:30 PM,50.0,50.0,100,29.53,6.2,WSW,6.9,-,N/A,Rain,Light Rain,240,2011-10-22 20:30:00
10:00 PM,50.0,48.2,94,29.53,6.2,WSW,6.9,-,N/A,,Mostly Cloudy,240,2011-10-22 21:00:00
11:00 PM,48.2,46.4,93,29.53,6.2,SSW,5.8,-,N/A,,Mostly Cloudy,200,2011-10-22 22:00:00
11:30 PM,48.2,46.4,93,29.53,6.2,SSW,5.8,-,N/A,,Mostly Cloudy,200,2011-10-22 22:30:00